SV1KWZ-1 Weather Reports


time (UTC)temp
C
wind
direction
speed
KPH
gust
KPH
rain 1hr
cm
rain 24hr
cm
rain mn
cm
humidity
%
barometer
mb
20260504081803 16 2 4.8 16.1 0.00 0.00 0.00 32 1027.5
20260504081503 16 348 4.8 14.5 0.00 0.00 0.00 32 1027.5
20260504081203 17 349 4.8 14.5 0.00 0.00 0.00 33 1027.5
20260504080903 17 23 4.8 14.5 0.00 0.00 0.00 32 1027.5
20260504080603 17 22 4.8 14.5 0.00 0.00 0.00 31 1027.5
20260504080303 17 43 4.8 14.5 0.00 0.00 0.00 31 1027.5
20260504070303 15 353 4.8 12.9 0.00 0.00 0.00 38 1027.4
20260504070217 16 348 4.8 12.9 0.00 0.00 0.00 38 1027.3
20260504050603 13 62 0.0 1.6 0.00 0.03 0.00 48 1027.0
20260504050303 13 62 0.0 1.6 0.00 0.03 0.00 48 1026.9
20260504050003 13 62 0.0 1.6 0.00 0.03 0.00 49 1026.9
20260504045703 12 62 0.0 3.2 0.00 0.03 0.00 50 1026.8
20260504045403 12 62 1.6 3.2 0.00 0.03 0.00 51 1026.7
20260504045103 12 63 1.6 3.2 0.00 0.03 0.00 52 1026.7
20260504044803 12 66 1.6 3.2 0.00 0.03 0.00 53 1026.7
20260504044504 11 61 1.6 4.8 0.00 0.03 0.00 53 1026.7
20260504044203 11 67 3.2 4.8 0.00 0.03 0.00 55 1026.7
20260504043903 11 73 3.2 4.8 0.00 0.03 0.00 55 1026.6
20260504043603 11 76 3.2 4.8 0.00 0.03 0.00 55 1026.7
20260504043303 11 75 3.2 4.8 0.00 0.03 0.00 55 1026.6
20260504043218 11 74 3.2 4.8 0.00 0.03 0.00 55 1026.6
20260504042703 11 61 3.2 4.8 0.00 0.03 0.00 55 1026.8
20260504042403 11 50 1.6 4.8 0.00 0.03 0.00 54 1026.6
20260504042103 11 13 1.6 3.2 0.00 0.03 0.00 52 1026.3
20260504041803 11 329 0.0 3.2 0.00 0.03 0.00 52 1026.7
20260504041503 11 319 0.0 3.2 0.00 0.03 0.00 52 1026.6
20260504041203 11 312 0.0 3.2 0.00 0.03 0.00 53 1026.7
20260504040903 11 306 0.0 3.2 0.00 0.03 0.00 54 1026.6
20260504040603 11 302 1.6 9.7 0.00 0.03 0.00 54 1026.5
20260504040303 11 312 1.6 9.7 0.00 0.03 0.00 54 1026.7
20260504040003 11 327 1.6 9.7 0.00 0.03 0.00 55 1026.8
20260504035703 10 344 1.6 9.7 0.00 0.03 0.00 55 1026.5
20260504035618 10 354 1.6 4.8 0.00 0.03 0.00 55 1026.7
20260504035103 10 347 1.6 4.8 0.00 0.03 0.00 56 1026.5
20260504034804 10 325 0.0 1.6 0.00 0.03 0.00 57 1026.6
20260504034503 10 323 0.0 1.6 0.00 0.03 0.00 57 1026.5
20260504034203 10 323 0.0 3.2 0.00 0.03 0.00 57 1026.5
20260504033903 10 327 1.6 3.2 0.00 0.03 0.00 56 1026.4
20260504033603 10 335 1.6 3.2 0.00 0.03 0.00 56 1026.3
20260504033516 10 336 1.6 3.2 0.00 0.03 0.00 56 1026.5
20260504033003 10 344 1.6 3.2 0.00 0.03 0.00 57 1026.5
20260504032918 10 345 1.6 3.2 0.00 0.03 0.00 57 1026.4
20260504032403 10 331 1.6 3.2 0.00 0.03 0.00 58 1026.5
20260504032103 10 328 0.0 1.6 0.00 0.03 0.00 58 1026.5
20260504031803 10 328 0.0 1.6 0.00 0.03 0.00 58 1026.3
20260504031503 10 327 0.0 1.6 0.00 0.03 0.00 58 1026.2
20260504031203 10 328 0.0 1.6 0.00 0.03 0.00 58 1026.3
20260504030903 10 328 0.0 1.6 0.00 0.03 0.00 58 1026.4
20260504030603 10 330 0.0 1.6 0.00 0.03 0.00 58 1026.4
20260504030518 10 330 0.0 1.6 0.00 0.03 0.00 58 1026.4
20260504030004 10 331 0.0 1.6 0.00 0.03 0.00 57 1026.3
20260504025703 10 331 0.0 1.6 0.00 0.03 0.00 57 1026.3
20260504025404 10 331 0.0 1.6 0.00 0.03 0.00 57 1026.2
20260504025103 10 329 0.0 1.6 0.00 0.03 0.00 57 1026.5
20260504024803 10 330 0.0 1.6 0.00 0.03 0.00 57 1026.5
20260504024503 10 340 0.0 1.6 0.00 0.03 0.00 56 1026.2
20260504024203 10 343 1.6 1.6 0.00 0.03 0.00 56 1026.4
20260504023903 10 346 1.6 1.6 0.00 0.03 0.00 56 1026.4
20260504023603 10 345 0.0 1.6 0.00 0.03 0.00 56 1026.3
20260504023303 10 338 0.0 1.6 0.00 0.03 0.00 56 1026.4
20260504023003 10 0 0.0 0.0 0.00 0.03 0.00 56 1026.1
20260504022918 10 0 0.0 0.0 0.00 0.03 0.00 56 1026.3
20260504022617 10 322 0.0 1.6 0.00 0.03 0.00 56 1026.2
20260504022103 10 323 0.0 1.6 0.00 0.03 0.00 56 1026.5
20260504021803 10 323 0.0 1.6 0.00 0.03 0.00 56 1026.3
20260504021503 10 334 1.6 3.2 0.00 0.03 0.00 56 1026.4
20260504021203 10 347 1.6 3.2 0.00 0.03 0.00 56 1026.5
20260504020903 10 352 1.6 3.2 0.00 0.03 0.00 56 1026.3
20260504020603 10 34 0.0 1.6 0.00 0.03 0.00 55 1026.4
20260504020303 10 33 0.0 3.2 0.00 0.03 0.00 55 1026.6
20260504020003 10 40 0.0 3.2 0.00 0.03 0.00 55 1026.4
20260504015703 10 43 1.6 3.2 0.00 0.03 0.00 55 1026.6
20260504015403 10 46 0.0 3.2 0.00 0.03 0.00 55 1026.2
20260504015103 10 56 0.0 1.6 0.00 0.03 0.00 55 1026.4
20260504014803 10 55 0.0 1.6 0.00 0.03 0.00 55 1026.5
20260504014503 10 48 0.0 1.6 0.00 0.03 0.00 55 1026.6
20260504014203 10 48 0.0 1.6 0.00 0.03 0.00 55 1026.3
20260504013903 10 47 0.0 1.6 0.00 0.03 0.00 55 1026.5
20260504013603 10 47 0.0 1.6 0.00 0.03 0.00 54 1026.5
20260504013303 11 39 0.0 3.2 0.00 0.03 0.00 54 1026.7
20260504013003 11 57 1.6 4.8 0.00 0.03 0.00 53 1026.5
20260504012703 11 72 1.6 4.8 0.00 0.03 0.00 53 1026.5
20260504012617 11 75 1.6 4.8 0.00 0.03 0.00 53 1026.5
20260504012317 11 90 1.6 4.8 0.00 0.03 0.00 53 1026.3
20260504011803 11 101 1.6 4.8 0.00 0.03 0.00 52 1026.3
20260504011503 11 115 1.6 4.8 0.00 0.03 0.00 53 1026.4
20260504011203 11 128 1.6 4.8 0.00 0.03 0.00 52 1026.3
20260504010903 11 123 1.6 4.8 0.00 0.03 0.00 52 1026.5
20260504010603 10 95 0.0 1.6 0.00 0.03 0.00 53 1026.2
20260504010303 10 88 0.0 1.6 0.00 0.03 0.00 53 1026.5
20260504010003 10 88 0.0 1.6 0.00 0.03 0.00 52 1026.2
20260504005703 10 86 0.0 1.6 0.00 0.03 0.00 52 1026.4
20260504005403 10 84 0.0 1.6 0.00 0.03 0.00 53 1026.3
20260504005103 10 84 0.0 1.6 0.00 0.03 0.00 53 1026.3
20260504005016 10 84 0.0 1.6 0.00 0.03 0.00 52 1026.3
20260504004503 11 82 1.6 3.2 0.00 0.03 0.00 52 1026.2
20260504004203 11 70 1.6 3.2 0.00 0.03 0.00 52 1026.3
20260504003903 11 56 1.6 3.2 0.00 0.03 0.00 51 1026.3
20260504003603 11 20 1.6 3.2 0.00 0.03 0.00 51 1026.3
20260504003517 11 7 1.6 3.2 0.00 0.03 0.00 51 1026.3
20260504003003 11 332 1.6 4.8 0.00 0.03 0.00 50 1026.2
20260504002703 11 333 1.6 4.8 0.00 0.03 0.00 50 1026.2
20260504002403 11 337 1.6 4.8 0.00 0.03 0.00 49 1026.1
20260504002103 11 343 1.6 4.8 0.00 0.03 0.00 49 1026.0
20260504001803 11 357 1.6 4.8 0.00 0.03 0.00 49 1026.2
20260504001503 11 360 1.6 9.7 0.00 0.03 0.00 48 1026.2
20260504001203 11 358 3.2 9.7 0.00 0.03 0.00 48 1026.2
20260504000903 11 1 3.2 9.7 0.00 0.03 0.00 48 1026.2
20260504000603 11 359 3.2 9.7 0.00 0.03 0.00 48 1026.2
20260504000303 11 5 3.2 6.4 0.00 0.03 0.00 48 1026.0
20260504000003 11 6 3.2 11.3 0.00 0.03 0.00 48 1026.3
20260503235703 11 6 3.2 11.3 0.00 0.03 0.00 48 1026.2
20260503235616 11 5 3.2 11.3 0.00 0.03 0.00 48 1026.3
20260503235103 11 348 3.2 11.3 0.00 0.03 0.00 48 1026.3
20260503234803 11 343 3.2 9.7 0.00 0.03 0.00 48 1026.2
20260503234718 11 338 3.2 9.7 0.00 0.03 0.00 49 1026.2
20260503234203 11 325 3.2 9.7 0.00 0.03 0.00 49 1026.1
20260503233903 11 329 3.2 11.3 0.00 0.03 0.00 49 1026.3
20260503233817 11 331 4.8 11.3 0.00 0.03 0.00 49 1026.3
20260503233303 11 338 4.8 12.9 0.00 0.05 0.00 49 1026.3
20260503233003 11 340 4.8 12.9 0.00 0.05 0.00 49 1026.2
20260503232703 11 347 3.2 12.9 0.00 0.05 0.00 50 1026.5
20260503232403 11 348 3.2 9.7 0.00 0.05 0.00 50 1026.4
20260503232103 11 344 3.2 6.4 0.00 0.05 0.00 50 1026.4
20260503231803 11 336 3.2 6.4 0.00 0.05 0.00 50 1026.4
20260503231503 11 330 1.6 6.4 0.00 0.05 0.00 51 1026.5
20260503231203 11 335 1.6 6.4 0.00 0.05 0.00 51 1026.3
20260503230903 11 349 0.0 4.8 0.00 0.05 0.00 51 1026.4
20260503230603 11 30 0.0 3.2 0.00 0.05 0.00 52 1026.3
20260503230517 11 30 0.0 3.2 0.00 0.05 0.00 52 1026.6
20260503230003 11 0 0.0 0.0 0.00 0.05 0.00 52 1026.4
20260503225703 11 63 0.0 1.6 0.00 0.05 0.00 52 1026.6
20260503225403 11 61 0.0 1.6 0.00 0.05 0.00 51 1026.4
20260503225103 11 55 0.0 1.6 0.00 0.05 0.00 51 1026.4
20260503224803 11 56 1.6 4.8 0.00 0.05 0.00 51 1026.3
20260503224717 11 57 1.6 4.8 0.00 0.05 0.00 51 1026.3
20260503224203 11 58 3.2 4.8 0.00 0.10 0.00 50 1026.3
20260503223903 11 53 3.2 4.8 0.00 0.10 0.00 50 1026.5
20260503223603 11 32 3.2 9.7 0.00 0.13 0.00 50 1026.2
20260503223303 11 14 3.2 11.3 0.00 0.13 0.00 50 1026.1
20260503223003 11 12 3.2 11.3 0.00 0.13 0.00 50 1026.2
20260503222703 11 7 3.2 11.3 0.00 0.13 0.00 50 1026.4
20260503222403 11 7 3.2 6.4 0.00 0.13 0.00 50 1026.4
20260503222103 11 352 3.2 6.4 0.00 0.13 0.00 50 1026.4
20260503221803 11 340 3.2 9.7 0.00 0.13 0.00 50 1026.4
20260503221503 11 339 4.8 12.9 0.00 0.13 0.00 49 1026.6
20260503221203 11 341 4.8 12.9 0.00 0.13 0.00 49 1026.5
20260503220903 11 342 4.8 12.9 0.00 0.13 0.00 49 1026.7
20260503220603 11 347 4.8 12.9 0.00 0.13 0.00 49 1026.4
20260503220303 11 344 6.4 14.5 0.00 0.13 0.00 49 1026.5
20260503220003 11 344 6.4 16.1 0.00 0.13 0.00 49 1026.5
20260503215703 11 337 6.4 16.1 0.00 0.13 0.00 49 1026.2
20260503215403 11 337 6.4 16.1 0.00 0.13 0.00 50 1026.6
20260503215103 11 335 6.4 16.1 0.00 0.13 0.00 50 1026.4
20260503214803 11 339 6.4 12.9 0.00 0.13 0.00 50 1026.5
20260503214717 11 340 6.4 12.9 0.00 0.13 0.00 50 1026.5
20260503214203 11 341 4.8 11.3 0.00 0.13 0.00 50 1026.7
20260503213903 11 339 3.2 9.7 0.00 0.13 0.00 50 1026.6
20260503213816 11 337 3.2 9.7 0.00 0.13 0.00 50 1026.5
20260503213303 11 324 3.2 9.7 0.00 0.13 0.00 51 1026.5
20260503213003 11 307 3.2 6.4 0.00 0.13 0.00 51 1026.7
20260503212703 11 313 4.8 12.9 0.00 0.13 0.00 51 1026.6
20260503212403 11 320 4.8 12.9 0.00 0.13 0.00 51 1026.6
20260503212103 11 330 4.8 12.9 0.00 0.13 0.00 51 1026.5
20260503211803 11 336 4.8 12.9 0.00 0.13 0.00 51 1026.3
20260503211503 11 338 3.2 11.3 0.00 0.13 0.00 51 1026.5
20260503211416 11 337 3.2 11.3 0.00 0.13 0.00 51 1026.2
20260503210903 11 328 1.6 6.4 0.00 0.13 0.00 50 1026.5
20260503210603 11 330 1.6 4.8 0.00 0.13 0.00 50 1026.5
20260503210518 11 327 1.6 9.7 0.00 0.13 0.00 51 1026.5
20260503210005 11 318 3.2 12.9 0.00 0.13 0.00 50 1026.5
20260503205703 11 320 3.2 12.9 0.00 0.13 0.13 50 1026.4
20260503205403 11 321 3.2 12.9 0.00 0.13 0.13 50 1026.5
20260503205103 11 329 3.2 9.7 0.00 0.13 0.13 50 1026.5
20260503204803 11 336 3.2 9.7 0.00 0.13 0.13 50 1026.5
20260503204503 11 331 1.6 9.7 0.00 0.13 0.13 51 1026.6
20260503204416 11 332 1.6 9.7 0.00 0.13 0.13 51 1026.4
20260503203903 11 324 3.2 11.3 0.00 0.13 0.13 51 1026.3
20260503203603 11 323 4.8 11.3 0.00 0.13 0.13 51 1026.4
20260503203303 11 327 4.8 12.9 0.00 0.13 0.13 51 1026.5
20260503203003 11 320 4.8 12.9 0.00 0.13 0.13 51 1026.6
20260503202917 11 319 4.8 12.9 0.00 0.13 0.13 51 1026.6
20260503202403 11 313 3.2 11.3 0.00 0.13 0.13 51 1026.7
20260503202103 11 315 4.8 12.9 0.00 0.13 0.13 51 1026.7
20260503201803 11 323 4.8 12.9 0.00 0.13 0.13 51 1026.8
20260503201503 11 329 4.8 12.9 0.00 0.13 0.13 51 1026.8
20260503201203 12 337 6.4 16.1 0.00 0.13 0.13 51 1026.7
20260503200903 12 340 6.4 16.1 0.00 0.13 0.13 51 1026.9
20260503200603 12 338 6.4 16.1 0.00 0.13 0.13 51 1026.7
20260503200303 12 339 6.4 16.1 0.00 0.13 0.13 51 1026.6
20260503200003 12 334 4.8 12.9 0.00 0.13 0.13 51 1026.7
20260503195703 12 330 4.8 12.9 0.00 0.13 0.13 51 1026.7
20260503195403 12 328 3.2 9.7 0.00 0.13 0.13 51 1026.7
20260503195103 12 321 3.2 9.7 0.00 0.13 0.13 51 1026.8
20260503195017 12 322 3.2 9.7 0.00 0.13 0.13 51 1026.9
20260503194718 12 329 3.2 9.7 0.00 0.13 0.13 50 1026.8
20260503194418 12 327 1.6 6.4 0.00 0.13 0.13 50 1026.8
20260503194118 12 325 1.6 9.7 0.00 0.13 0.13 50 1026.8
20260503193603 12 312 3.2 11.3 0.00 0.13 0.13 50 1026.6
20260503193517 12 309 3.2 11.3 0.00 0.13 0.13 50 1026.9
20260503193217 12 323 4.8 14.5 0.00 0.13 0.13 50 1026.8
20260503192703 12 338 6.4 14.5 0.00 0.13 0.13 49 1026.8
20260503192403 12 346 6.4 14.5 0.00 0.13 0.13 49 1026.8
20260503192103 12 350 4.8 12.9 0.00 0.13 0.13 49 1026.8
20260503191805 12 347 4.8 11.3 0.00 0.13 0.13 49 1026.7
20260503191718 12 345 4.8 11.3 0.00 0.13 0.13 49 1026.7
20260503191203 12 330 4.8 16.1 0.00 0.13 0.13 49 1026.7
20260503190903 12 322 4.8 16.1 0.00 0.13 0.13 48 1026.5
20260503190604 12 325 4.8 16.1 0.00 0.13 0.13 48 1026.3
20260503190517 12 321 4.8 16.1 0.00 0.13 0.13 48 1026.5
20260503190003 12 328 4.8 12.9 0.00 0.13 0.13 47 1026.9
20260503185703 12 331 6.4 12.9 0.00 0.13 0.13 47 1026.7
20260503185404 12 337 6.4 14.5 0.00 0.13 0.13 47 1026.4
20260503185103 12 339 6.4 14.5 0.00 0.13 0.13 46 1026.5
20260503184803 12 345 6.4 14.5 0.00 0.13 0.13 46 1026.3
20260503184503 12 347 6.4 16.1 0.00 0.13 0.13 46 1026.3
20260503184203 12 349 8.0 24.1 0.00 0.13 0.13 46 1026.4
20260503183903 12 353 8.0 24.1 0.00 0.13 0.13 46 1026.3
20260503183603 12 358 8.0 24.1 0.00 0.13 0.13 46 1026.3
20260503183303 12 356 6.4 16.1 0.00 0.13 0.13 46 1026.2
20260503183003 12 358 6.4 16.1 0.00 0.13 0.13 46 1026.1
20260503182703 12 346 6.4 16.1 0.00 0.13 0.13 47 1026.2
20260503182403 12 344 6.4 14.5 0.00 0.13 0.13 47 1026.0
20260503182103 12 345 6.4 14.5 0.00 0.13 0.13 47 1026.0
20260503181803 12 340 6.4 14.5 0.00 0.13 0.13 47 1026.0
20260503181504 12 339 6.4 14.5 0.00 0.13 0.13 47 1025.9
20260503181417 12 341 6.4 17.7 0.00 0.13 0.13 47 1025.7
20260503181117 12 339 6.4 22.5 0.00 0.13 0.13 47 1025.9
20260503180603 12 338 8.0 22.5 0.00 0.13 0.13 47 1026.0
20260503180303 12 338 8.0 22.5 0.00 0.13 0.13 47 1026.0
20260503180004 12 343 8.0 17.7 0.00 0.13 0.13 47 1025.8
20260503175703 12 347 8.0 17.7 0.00 0.13 0.13 46 1025.7
20260503175403 12 340 8.0 17.7 0.00 0.13 0.13 47 1025.7
20260503175103 12 347 8.0 17.7 0.00 0.13 0.13 47 1025.4
20260503174803 12 340 8.0 17.7 0.00 0.13 0.13 48 1025.6
20260503174503 12 344 8.0 22.5 0.00 0.13 0.13 48 1025.7
20260503174203 12 359 8.0 22.5 0.00 0.13 0.13 47 1025.5
20260503174117 12 359 8.0 22.5 0.00 0.13 0.13 47 1025.5
20260503173603 12 20 6.4 14.5 0.00 0.13 0.13 47 1025.4
20260503173303 12 1 8.0 22.5 0.00 0.13 0.13 47 1025.3
20260503173003 12 355 8.0 22.5 0.00 0.13 0.13 47 1025.4
20260503172703 13 350 8.0 22.5 0.00 0.13 0.13 46 1025.3
20260503172403 13 339 8.0 22.5 0.00 0.13 0.13 46 1025.4
20260503172103 13 337 8.0 20.9 0.00 0.13 0.13 46 1025.4
20260503171803 13 345 9.7 27.4 0.00 0.13 0.13 46 1025.4
20260503171503 13 343 9.7 27.4 0.00 0.13 0.13 46 1025.3
20260503171203 13 345 8.0 27.4 0.00 0.13 0.13 45 1025.5
20260503170903 13 341 8.0 27.4 0.00 0.13 0.13 45 1025.4
20260503170817 13 345 8.0 27.4 0.00 0.13 0.13 45 1025.3
20260503170303 13 1 8.0 17.7 0.00 0.13 0.13 45 1025.2
20260503160218 13 353 8.0 22.5 0.00 0.13 0.13 42 1024.4
20260503150903 14 2 11.3 30.6 0.00 0.13 0.13 40 1024.2
20260503150818 14 3 11.3 30.6 0.00 0.13 0.13 39 1024.3
20260503150303 14 355 8.0 24.1 0.00 0.13 0.13 40 1024.2
20260503140303 15 19 11.3 33.8 0.00 0.13 0.13 37 1024.3
20260503131203 15 18 8.0 24.1 0.00 0.13 0.13 39 1024.4
20260503130903 15 6 8.0 24.1 0.00 0.13 0.13 38 1024.8
20260503130817 15 359 8.0 24.1 0.00 0.13 0.13 38 1024.8
20260503130303 15 344 8.0 24.1 0.00 0.13 0.13 38 1024.3
20260503110603 12 329 6.4 14.5 0.00 0.13 0.13 54 1025.2
20260503110303 11 331 4.8 16.1 0.00 0.13 0.13 57 1025.0
20260503090303 12 18 9.7 29.0 0.00 0.13 0.13 48 1024.8